TimeCDT,TemperatureF,Dew PointF,Humidity,Sea Level PressureIn,VisibilityMPH,Wind Direction,Wind SpeedMPH,Gust SpeedMPH,PrecipitationIn,Events,Conditions,WindDirDegrees,DateUTC
12:53 AM,55.0,30.0,38,30.10,10.0,SE,6.9,-,N/A,,Clear,140,2012-09-24 05:53:00
1:53 AM,48.9,30.9,50,30.10,10.0,ESE,6.9,-,N/A,,Clear,110,2012-09-24 06:53:00
2:53 AM,46.0,32.0,58,30.09,10.0,ESE,5.8,-,N/A,,Clear,110,2012-09-24 07:53:00
3:53 AM,45.0,32.0,60,30.06,10.0,East,4.6,-,N/A,,Clear,90,2012-09-24 08:53:00
4:53 AM,46.0,33.1,61,30.05,10.0,ESE,6.9,-,N/A,,Clear,110,2012-09-24 09:53:00
5:53 AM,45.0,34.0,65,30.03,10.0,SE,6.9,-,N/A,,Clear,130,2012-09-24 10:53:00
6:53 AM,43.0,33.1,68,30.04,10.0,ESE,6.9,-,N/A,,Clear,120,2012-09-24 11:53:00
7:53 AM,42.1,32.0,67,30.05,10.0,Calm,Calm,-,N/A,,Clear,0,2012-09-24 12:53:00
8:53 AM,46.9,35.1,63,30.03,10.0,ESE,3.5,-,N/A,,Clear,120,2012-09-24 13:53:00
9:53 AM,54.0,37.0,53,30.01,10.0,Calm,Calm,-,N/A,,Clear,0,2012-09-24 14:53:00
10:53 AM,62.1,43.0,50,29.98,10.0,WSW,6.9,-,N/A,,Clear,240,2012-09-24 15:53:00
11:53 AM,66.0,45.0,47,29.96,10.0,South,9.2,-,N/A,,Clear,190,2012-09-24 16:53:00
12:53 PM,68.0,46.0,45,29.94,10.0,Calm,Calm,-,N/A,,Clear,0,2012-09-24 17:53:00
1:53 PM,71.1,48.0,44,29.91,10.0,South,6.9,-,N/A,,Clear,170,2012-09-24 18:53:00
2:53 PM,73.0,48.0,41,29.89,10.0,SSE,5.8,-,N/A,,Clear,160,2012-09-24 19:53:00
3:53 PM,73.9,48.0,40,29.86,10.0,East,5.8,-,N/A,,Clear,90,2012-09-24 20:53:00
4:53 PM,73.9,48.9,41,29.85,10.0,ESE,9.2,-,N/A,,Clear,110,2012-09-24 21:53:00
5:53 PM,73.0,48.9,42,29.85,10.0,ESE,6.9,-,N/A,,Clear,120,2012-09-24 22:53:00
6:53 PM,69.1,50.0,51,29.86,10.0,SE,9.2,-,N/A,,Clear,130,2012-09-24 23:53:00
7:53 PM,61.0,48.0,62,29.89,10.0,East,4.6,-,N/A,,Clear,100,2012-09-25 00:53:00
8:53 PM,57.9,48.0,70,29.90,10.0,East,3.5,-,N/A,,Clear,90,2012-09-25 01:53:00
9:53 PM,55.0,48.0,77,29.89,10.0,Calm,Calm,-,N/A,,Clear,0,2012-09-25 02:53:00
10:53 PM,50.0,46.9,89,29.91,10.0,Calm,Calm,-,N/A,,Clear,0,2012-09-25 03:53:00
11:53 PM,48.9,45.0,86,29.90,10.0,Calm,Calm,-,N/A,,Clear,0,2012-09-25 04:53:00